Location: Antioch
(38.0049°N, 121.8058°W)
Time: 03:28:09
(UTC+00:00)

Cosmos 2208 Rocket - Pass Details

Date: 18 May 2026
Orbit: 751 x 800 km, 74.0° (Epoch: 9 June)

Event Time Altitude Azimuth Distance (km) Brightness Sun altitude
Exits shadow 08:38:58 29° 71° (ENE) 1,399 5.5 -31.8°
Drops below altitude 10° 08:42:16 10° 38° (NE) 2,318 7.2 -31.7°
Sets 08:44:49 0° 29° (NNE) 3,241 8.3 -31.6°
